Regional Weather Roundup
Issued by NWS San Angelo, TX

Home | Current Version | Previous Version | Text Only | Print | Product List | Glossary On
Versions: 1 2 3 4 5 6 7 8 9 10 11 12 13 14 15 16 17 18 19 20 21 22 23 24 25 26 27 28 29 30 31 32 33 34 35 36 37 38 39 40 41 42 43 44 45 46 47 48 49 50
000
ASUS44 KSJT 051210
RWRSJT
WEST CENTRAL TEXAS REGIONAL WEATHER ROUNDUP
NATIONAL WEATHER SERVICE SAN ANGELO TX
600 AM CST THU MAR 05 2015

NOTE: "FAIR" INDICATES FEW OR NO CLOUDS BELOW 12,000 FEET WITH NO
SIGNIFICANT WEATHER AND/OR OBSTRUCTIONS TO VISIBILITY.

TXZ049-054-064>066-071>073-076>078-098-099-113-114-127-128-139-140-
154-155-168>170-051300
...LOCATIONS ACROSS WEST CENTRAL TEXAS...

CITY           SKY/WX    TMP DP  RH WIND       PRES   REMARKS
SAN ANGELO     PTCLDY    25  18  74 N15       30.50R WCI  13
ABILENE        CLEAR     20  17  88 N9        30.51R WCI   9
DYESS AFB      NOT AVBL
JUNCTION       CLOUDY    28  25  88 N13       30.43R WCI  17
SWEETWATER     CLEAR     22  19  90 N8        30.53R WCI  12
BROWNWOOD      MOCLDY    25  19  80 N15G22    30.50R WCI  12
COLEMAN        SUNNY     24  20  85 N14       30.49R WCI  11
SONORA         CLOUDY    27  23  86 CALM      30.48R
OZONA          CLOUDY    27  23  86 MISG      30.49R
BRADY          CLOUDY    25  23  93 N16       30.43R WCI  12
$$

TEXAS PANHANDLE/OKLAHOMA PANHANDLE

CITY           SKY/WX    TMP DP  RH WIND       PRES   REMARKS
AMARILLO       CLEAR     17  13  84 W8        30.44R WCI   7
BORGER         CLEAR     19  13  77 SW7       30.45R WCI  10
CANADIAN       CLEAR     14  11  89 SW3       30.48R
DALHART        CLEAR     15  10  80 W8        30.39S WCI   4
DUMAS          SUNNY     15  12  87 W12       30.42R WCI   2
GUYMON         NOT AVBL
HEREFORD       SUNNY     11   9  91 W7        30.45R WCI   0
PAMPA          SUNNY     11  10  93 W6        30.44R WCI   2
PERRYTON         N/A     18  14  84 W7        30.43R WCI   9
$$

SOUTHERN PANHANDLE/SOUTH PLAINS/ROLLING PLAINS

CITY           SKY/WX    TMP DP  RH WIND       PRES   REMARKS
LUBBOCK        MOCLDY    22  18  85 N7        30.46R WCI  13
SNYDER         CLEAR     21  17  83 NW7       30.51R WCI  12
CHILDRESS      PTCLDY    14  12  92 NW5       30.53R WCI   6
SEMINOLE       CLOUDY    25  16  67 N7        30.49R WCI  18
$$

PERMIAN BASIN

CITY           SKY/WX    TMP DP  RH WIND       PRES   REMARKS
MIDLAND        CLOUDY    25  17  72 N14       30.49R WCI  13
ODESSA         CLOUDY    25  16  68 N12       30.49R WCI  14
WINK           CLOUDY    28  19  69 N12       30.50R WCI  18
$$

FAR WEST/SOUTHWEST MOUNTAINS/TRANS PECOS

CITY           SKY/WX    TMP DP  RH WIND       PRES   REMARKS
ALPINE         CLOUDY    22  21  95 NE12      30.45R WCI  11
DRYDEN           N/A     31  23  72 N16       30.45R WCI  20
EL PASO        PTCLDY    32  22  66 E8        30.34R WCI  25
FORT STOCKTON  CLOUDY    25  25 100 N9        30.49R FOG     WCI  15
GUADALUPE PASS NOT AVBL
MARFA          CLOUDY    21  19  93 N18       30.35R WCI   6
PECOS          CLOUDY    28  25  88 N5        30.52R WCI  23
$$

DALLAS/FORT WORTH METROPLEX

CITY           SKY/WX    TMP DP  RH WIND       PRES   REMARKS
DFW AIRPORT    PTCLDY    24  18  77 N16       30.49R WCI  11
FTW MEACHAM    CLEAR     25  18  74 NW12      30.50R WCI  14
DAL-EXECUTIVE  MOCLDY    25  20  81 N14       30.47R WCI  13
GRAND PRAIRIE  NOT AVBL
ADDISON        NOT AVBL
MESQUITE       NOT AVBL
LANCASTER      PTSUNNY   26  18  72 N14       30.49R WCI  14
$$

NORTH CENTRAL TEXAS

CITY           SKY/WX    TMP DP  RH WIND       PRES   REMARKS
SHRMAN/DENISON SUNNY     25  19  79 N9        30.51R WCI  15
GAINESVILLE    PTCLDY    21  15  78 NW13      30.52R WCI   9
BRIDGEPORT     SUNNY     24  20  83 N10G16    30.55R WCI  13
DENTON         CLEAR     22  15  75 N10       30.51R WCI  11
WAXAHACHIE     PTSUNNY   25  22  87 N15       30.47R WCI  13
GRANBURY       SUNNY     26  21  81 NW9       30.54R WCI  17
$$

WESTERN NORTH TEXAS

CITY           SKY/WX    TMP DP  RH WIND       PRES   REMARKS
WICHITA FALLS  CLEAR     17  12  80 NW9       30.54R WCI   6
VERNON           N/A     15   7  71 NW8       30.56R WCI   3
BRECKENRIDGE   SUNNY     23  21  91 N6        30.54R WCI  16
COMANCHE       PTCLDY    25  22  90 N20G25    30.49R WCI  10
$$

CENTRAL AND SOUTH CENTRAL TEXAS

CITY           SKY/WX    TMP DP  RH WIND       PRES   REMARKS
AUSTIN/BERGSTM CLOUDY    32  28  85 N23G32    30.37R WCI  19
WACO           CLOUDY    27  24  89 N22       30.44R WCI  13
HILLSBORO      PTSUNNY   27  24  87 N18       30.46R WCI  14
TEMPLE         CLOUDY    28  21  74 N17G25    30.42R WCI  16
KILLEEN-GRAY   NOT AVBL
FORT HOOD      NOT AVBL
GEORGETOWN     CLOUDY    30  27  86 N18G24    30.41R WCI  18
LAGO VISTA     CLOUDY    29  28  94 N14G26    30.37R WCI  19
SAN MARCOS     CLOUDY    32  27  80 N26G35    30.35R WCI  18
NEW BRAUNFELS  CLOUDY    34  33  96 N22G35    30.32R WCI  22
RANDOLPH AFB   CLOUDY    33  28  80 N21G32    30.33R WCI  21
SAN ANTONIO    CLOUDY    33  27  78 N20G28    30.34R WCI  21
STINSON        CLOUDY    35  28  75 N12G25    30.34R WCI  27
PLEASANTON     NOT AVBL
LA GRANGE      MIX PCPN  34  32  93 N14G24    30.31R WCI  24
GIDDINGS       LGT RAIN  32  29  90 N22G29    30.36S WCI  19
$$

EAST TEXAS

CITY           SKY/WX    TMP DP  RH WIND       PRES   REMARKS
PARIS          MOCLDY    25  18  74 CALM      30.47R
CLARKSVILLE    NOT AVBL
TYLER          CLOUDY    29  25  85 N15G25    30.39R WCI  18
LONGVIEW       LGT SNOW  31  28  89 NE9       30.38R FOG     WCI  23
PALESTINE      CLOUDY    31  30  94 N15G21    30.39R WCI  20
NACOGDOCHES    CLOUDY    34  28  80 N14G24    30.34R WCI  24
$$

TEXAS HILL COUNTRY AND EDWARDS PLATEAU

CITY           SKY/WX    TMP DP  RH WIND       PRES   REMARKS
LLANO          CLOUDY    30  27  86 CALM      30.48R
HORSESHOE BAY  CLOUDY    31  27  86 N16G24    30.43R WCI  19
KERRVILLE      CLOUDY    29  26  90 N26G35    30.36R WCI  14
FREDERICKSBRG  CLOUDY    27  25  91 N16G23    30.36R WCI  15
ROCKSPRINGS    NOT AVBL
HONDO          CLOUDY    33  27  78 N17       30.39R WCI  22
UVALDE         CLOUDY    34  28  78 N17       30.40R WCI  23
DEL RIO        CLOUDY    35  25  66 NW20G26   30.47R WCI  24
$$

SOUTHEAST TEXAS

CITY           SKY/WX    TMP DP  RH WIND       PRES   REMARKS
COLLEGE STN    LGT RAIN  33  29  85 N21G29    30.35R WCI  21
CALDWELL       CLOUDY    32  30  93 NW16G26   30.40R WCI  21
CROCKETT       CLOUDY    36  34  93 N13G20    30.39R WCI  27
BRENHAM        MIX PCPN  35  33  93 N21G31    30.34R WCI  23
HUNTSVILLE     RAIN      34  33  96 N8G23     30.32R FOG     WCI  27
CONROE         CLOUDY    38  34  85 N14G24    30.28R WCI  30
HOUSTON BUSH   LGT RAIN  41  37  86 N21G30    30.26R WCI  32
HOUSTON HOBBY  LGT RAIN  41  38  89 N18G30    30.22R WCI  32
PERLAND        CLOUDY    42  38  85 NE16G26   30.24R WCI  34
WHARTON        CLOUDY    37  34  89 N23G35    30.25R WCI  26
$$

THE UPPER TEXAS COAST

CITY           SKY/WX    TMP DP  RH WIND       PRES   REMARKS
ORANGE         RAIN      38  37  94 N14G22    30.22R WCI  30
PORT ARTHUR    RAIN      39  36  89 N20G35    30.18R FOG     WCI  29
GALVESTON      LGT RAIN  43  41  93 N32G40    30.19R WCI  32
ANGLETON       CLOUDY    41  39  93 N18G29    30.20R WCI  32
BAY CITY       CLOUDY    41  39  93 N22G32    30.21R WCI  32
$$

TEXAS COASTAL BEND, RIO GRANDE PLAINS DEEP SOUTH TEXAS

CITY           SKY/WX    TMP DP  RH WIND       PRES   REMARKS
VICTORIA       MIX PCPN  37  34  89 N22G31    30.26R WCI  26
BEEVILLE       CLOUDY    37  36  95 N16G24    30.29R WCI  28
ROCKPORT       CLOUDY    41  34  76 N25G36    30.25R WCI  31
PORT ARANSAS   CLOUDY    41  38  88 N26G33    30.22R WCI  30
PORT LAVACA    DRIZZLE   38  35  89 N26G33    30.25R WCI  27
CORPUS CHRISTI CLOUDY    41  35  79 N31G37    30.26R WCI  30
KINGSVILLE NAS CLOUDY    42  38  85 N21G33    30.27R WCI  33
COTULLA        CLOUDY    39  31  72 N20G28    30.36R WCI  29
LAREDO         CLOUDY    41  35  79 N22       30.36R WCI  31
BROWNSVILLE    LGT RAIN  44  42  93 NW18G29   30.19R FOG     WCI  36
PORT ISABEL    LGT RAIN  44  43  96 NW30G38   30.19R FOG     WCI  34
HEBBRONVILLE   RAIN     N/A N/A N/A NW15G22   30.31R
MCALLEN        CLOUDY    45  41  86 N18G33    30.23R WCI  37
WESLACO        CLOUDY    43  40  90 N21G29    30.23R WCI  34
FALFURRIAS     CLOUDY    43  37  79 N17G24    30.27R WCI  35
EDINBURG       CLOUDY    45  41  85 N15G25    30.24R WCI  38
$$


USA.gov is the U.S. government's official web portal to all federal, state and local government web resources and services.